Terug naar catalogus

MEXSAT 3

ActiefCommunicatieGEO
NORAD 39035·PAYLOAD·🇲🇽 Mexico

Gelanceerd Dec 19, 2012 vanaf Guiana Space Centre

Loading…

TLE

VersSource: Space-Track

Epoch: Sep 14, 2026, 13:15 UTC

1 39035U 12075B   26257.55243745 -.00000034  00000-0  00000-0 0  9990
2 39035   0.0194 148.8027 0001408  85.2847 203.5614  1.00272018  7945

Volg MEXSAT 3 in realtime met AllMySat

Download on the App Store